This is the latest recevied weather packets stored in our database for station/object SQ7IQO. If no packets are shown the sender has not sent any weather packets the latest 10 day(s).
| Time | Temp. | Humidity | Pressure | Rain* | Wind** | Luminosity | Snow |
|---|---|---|---|---|---|---|---|
| 1787660436 | 22.78° C | 52% | 1021.4 hPa | 0 mm | 0 m/s | - | - |
| 1787660376 | 23.33° C | 52% | 1021.4 hPa | 0 mm | 0.45 m/s, ° | - | - |
| 1787660316 | 22.78° C | 53% | 1021.4 hPa | 0 mm | 0 m/s | - | - |
| 1787660256 | 22.22° C | 55% | 1021.4 hPa | 0 mm | 0 m/s | - | - |
| 1787660196 | 22.78° C | 54% | 1021.4 hPa | 0 mm | 0.45 m/s, ° | - | - |
| 1787660136 | 23.33° C | 54% | 1021.4 hPa | 0 mm | 0.45 m/s, ° | - | - |
| 1787660076 | 22.78° C | 55% | 1021.4 hPa | 0 mm | 0 m/s | - | - |
| 1787660016 | 22.78° C | 55% | 1021.4 hPa | 0 mm | 0 m/s | - | - |
| 1787659956 | 22.78° C | 53% | 1021.4 hPa | 0 mm | 0 m/s | - | - |
| 1787659896 | 22.78° C | 56% | 1021.4 hPa | 0 mm | 0 m/s | - | - |
| 1787659836 | 22.22° C | 58% | 1021.4 hPa | 0 mm | 0 m/s | - | - |
| 1787659776 | 21.67° C | 57% | 1021.5 hPa | 0 mm | 0 m/s | - | - |
| 1787659716 | 21.67° C | 58% | 1021.4 hPa | 0 mm | 0 m/s | - | - |
| 1787659656 | 21.67° C | 59% | 1021.4 hPa | 0 mm | 0 m/s | - | - |
| 1787659596 | 21.67° C | 56% | 1021.5 hPa | 0 mm | 0 m/s | - | - |
| 1787659536 | 21.11° C | 60% | 1021.4 hPa | 0 mm | 0 m/s | - | - |
| 1787659476 | 20.56° C | 58% | 1021.4 hPa | 0 mm | 0 m/s | - | - |
| 1787659416 | 21.11° C | 57% | 1021.4 hPa | 0 mm | 0 m/s | - | - |
| 1787659356 | 21.67° C | 56% | 1021.4 hPa | 0 mm | 0.45 m/s, ° | - | - |
| 1787659296 | 22.22° C | 54% | 1021.4 hPa | 0 mm | 0 m/s | - | - |
| 1787659236 | 22.78° C | 55% | 1021.4 hPa | 0 mm | 0 m/s | - | - |
| 1787659176 | 23.33° C | 56% | 1021.4 hPa | 0 mm | 0 m/s | - | - |
| 1787659116 | 23.33° C | 54% | 1021.5 hPa | 0 mm | 0 m/s | - | - |
| 1787659056 | 22.78° C | 55% | 1021.4 hPa | 0 mm | 0 m/s | - | - |
| 1787658996 | 22.78° C | 52% | 1021.4 hPa | 0 mm | 0 m/s | - | - |
* Rain latest hour (hover to see other rain measurements)
** Current wind speed in m/s (hover to see current wind gust speed)